Weather History for KDSV - December, 2013

Change the Weather History Date:

Sunday, December 15, 2013

  Actual Average Record
Temperature  
Mean Temperature 24 °F -  
Max Temperature 28 °F 38 °F 61 °F (1975)
Min Temperature 21 °F 21 °F -2 °F (1962)
Degree Days  
Heating Degree Days 40    
Moisture  
Dew Point 21 °F    
Average Humidity 83    
Maximum Humidity 93    
Minimum Humidity 63    
Precipitation  
Precipitation 0.03 in - - ()
Sea Level Pressure  
Sea Level Pressure 29.72 in    
Wind  
Wind Speed 5 mph (NW)    
Max Wind Speed 16 mph    
Max Gust Speed 22 mph    
Visibility 5 miles    
Events Fog , Snow    
Averages and records for this station are not official NWS values.
T = Trace of Precipitation, MM = Missing Value Source: NWS Daily Summary

Daily Weather History Graph

Daily Weather History Graph

Search for Another Location

Airport or City:

Trip Planner

Search our weather history database for the weather conditions in past years. The results will help you decide how hot, cold, wet, or windy it might be!

Date:

Astronomy

Dec. 15, 2013 Rise Set
Actual Time 7:33 AM EST 4:38 PM EST
Civil Twilight 7:01 AM EST 5:10 PM EST
Nautical Twilight 6:26 AM EST 5:46 PM EST
Astronomical Twilight 5:51 AM EST 6:20 PM EST
Moon 3:42 PM EST (12/15) 5:46 AM EST (12/15)
Length of Visible Light 10h 08m
Length of Day
9h 04m
Waxing Gibbous, 97% of the Moon is Illuminated
Dec 15
Waxing Gibbous
Dec 17
Full
Dec 25
Last Quarter
Jan 1
New
Jan 7
First Quarter

Hourly Weather History & Observations

Time (EST) Temp. Windchill Dew Point Humidity Pressure Visibility Wind Dir Wind Speed Gust Speed Precip Events Conditions
12:54 AM 28.0 °F 18.6 °F 24.1 °F 85% 29.71 in 1.5 mi SE 10.4 mph - 0.00 in Snow Light Snow
1:54 AM 27.0 °F 18.7 °F 24.1 °F 89% 29.68 in 1.2 mi SE 8.1 mph - 0.01 in Snow Light Snow
2:21 AM 26.6 °F 17.5 °F 24.8 °F 93% 29.61 in 2.0 mi SSE 9.2 mph - 0.00 in Snow Light Snow
2:54 AM 28.0 °F 24.2 °F 24.1 °F 85% 29.66 in 4.0 mi South 3.5 mph - 0.01 in Snow Light Snow
3:23 AM 28.4 °F 24.6 °F 24.8 °F 86% 29.59 in 2.0 mi SE 3.5 mph - 0.00 in Snow Light Snow
3:40 AM 28.4 °F - 24.8 °F 86% 29.58 in 3.0 mi Calm Calm - 0.00 in Snow Light Snow
3:54 AM 27.0 °F - 24.1 °F 89% 29.64 in 5.0 mi Calm Calm - 0.00 in Snow Light Snow
4:54 AM 26.1 °F 18.4 °F 23.0 °F 88% 29.64 in 7.0 mi NNW 6.9 mph - 0.00 in   Overcast
5:11 AM 26.6 °F - 24.8 °F 93% 29.59 in 2.5 mi Calm Calm - 0.00 in Snow Light Snow
5:20 AM 26.6 °F - 24.8 °F 93% 29.59 in 3.0 mi Calm Calm - 0.00 in Snow Light Snow
5:54 AM 26.1 °F - 23.0 °F 88% 29.65 in 5.0 mi Calm Calm - 0.00 in   Overcast
6:54 AM 26.1 °F - 24.1 °F 92% 29.68 in 7.0 mi Calm Calm - N/A   Overcast
7:01 AM 26.6 °F - 24.8 °F 93% 29.63 in 7.0 mi Calm Calm - N/A   Overcast
7:12 AM 26.6 °F - 24.8 °F 93% 29.63 in 7.0 mi Calm Calm - N/A   Overcast
7:41 AM 26.6 °F - 23.0 °F 86% 29.64 in 6.0 mi Calm Calm - N/A   Overcast
7:54 AM 26.1 °F - 24.1 °F 92% 29.70 in 6.0 mi Calm Calm - N/A   Overcast
8:54 AM 27.0 °F 18.0 °F 21.9 °F 81% 29.75 in 10.0 mi NW 9.2 mph - N/A   Overcast
9:54 AM 27.0 °F 18.0 °F 21.9 °F 81% 29.76 in 10.0 mi NW 9.2 mph - N/A   Overcast
10:54 AM 27.0 °F 23.0 °F 19.9 °F 75% 29.77 in 9.0 mi Variable 3.5 mph - N/A   Overcast
11:54 AM 28.0 °F 24.2 °F 19.9 °F 72% 29.75 in 10.0 mi Variable 3.5 mph - N/A   Overcast
12:54 PM 28.0 °F 20.8 °F 19.0 °F 69% 29.74 in 9.0 mi WNW 6.9 mph 16.1 mph 0.00 in   Overcast
1:54 PM 28.9 °F 22.8 °F 19.0 °F 67% 29.74 in 10.0 mi Variable 5.8 mph - N/A   Overcast
2:54 PM 27.0 °F 19.5 °F 21.0 °F 78% 29.75 in 4.0 mi North 6.9 mph - 0.00 in Snow Light Snow
3:04 PM 26.6 °F 20.0 °F 21.2 °F 80% 29.70 in 2.5 mi North 5.8 mph - 0.00 in Snow Light Snow
3:17 PM 26.6 °F 21.2 °F 21.2 °F 80% 29.70 in 1.5 mi NNW 4.6 mph - 0.00 in Snow Light Snow
3:54 PM 26.1 °F 20.5 °F 23.0 °F 88% 29.76 in 1.0 mi WNW 4.6 mph - 0.00 in Snow Light Snow
4:03 PM 26.6 °F 22.6 °F 23.0 °F 86% 29.71 in 0.8 mi WNW 3.5 mph - 0.00 in Snow Light Snow
4:49 PM 24.8 °F - 23.0 °F 93% 29.71 in 1.0 mi Calm Calm - 0.01 in Snow Light Snow
4:54 PM 25.0 °F - 23.0 °F 92% 29.76 in 1.2 mi Calm Calm - 0.01 in Snow Light Snow
5:08 PM 24.8 °F - 23.0 °F 93% 29.71 in 2.5 mi Calm Calm - 0.00 in Snow Light Snow
5:21 PM 24.8 °F - 23.0 °F 93% 29.71 in 4.0 mi Calm Calm - 0.00 in Snow Light Snow
5:54 PM 27.0 °F - 21.9 °F 81% 29.77 in 10.0 mi Calm Calm - 0.00 in   Overcast
6:54 PM 28.9 °F 25.2 °F 18.0 °F 64% 29.78 in 10.0 mi Variable 3.5 mph - N/A   Overcast
7:54 PM 28.0 °F 20.0 °F 17.1 °F 63% 29.80 in 10.0 mi West 8.1 mph - N/A   Overcast
8:34 PM 26.6 °F 20.0 °F 19.4 °F 74% 29.76 in 1.8 mi Variable 5.8 mph - 0.00 in Snow Light Snow
8:54 PM 25.0 °F 14.8 °F 21.0 °F 85% 29.83 in 1.0 mi NNW 10.4 mph - 0.00 in Snow Light Snow
8:59 PM 24.8 °F 12.4 °F 21.2 °F 86% 29.78 in 0.5 mi NNW 15.0 mph 18.4 mph 0.00 in Fog , Snow Snow
9:05 PM 24.8 °F 11.9 °F 21.2 °F 86% 29.79 in 0.2 mi NW 16.1 mph - 0.00 in Fog , Snow Heavy Snow
9:12 PM 24.8 °F 19.1 °F 21.2 °F 86% 29.79 in 0.5 mi Variable 4.6 mph - 0.00 in Fog , Snow Snow
9:21 PM 24.8 °F 14.0 °F 17.6 °F 74% 29.80 in 2.5 mi WNW 11.5 mph 21.9 mph 0.00 in Snow Light Snow
9:24 PM 24.8 °F 12.4 °F 15.8 °F 69% 29.80 in 6.0 mi NW 15.0 mph 21.9 mph 0.00 in Snow Light Snow
9:54 PM 23.0 °F 13.9 °F 12.9 °F 65% 29.87 in 10.0 mi West 8.1 mph - 0.00 in   Overcast
10:54 PM 21.9 °F 13.4 °F 14.0 °F 72% 29.88 in 5.0 mi NW 6.9 mph - 0.00 in Snow Light Snow
11:54 PM 21.0 °F 11.4 °F 12.9 °F 71% 29.91 in 9.0 mi WNW 8.1 mph 16.1 mph 0.00 in   Overcast